| time (UTC) | temp F | wind direction | speed MPH | gust MPH | rain 1hr in | rain 24hr in | rain mn in | humidity % | barometer mb |
| 20260902184501 | 79 | 183 | 1.0 | 3.0 | 0.00 | 0.18 | 0.00 | 60 | 1019.0 |
| 20260902183111 | 79 | 231 | 0.0 | 3.0 | 0.00 | 0.18 | 0.00 | 61 | 1018.9 |
| 20260902181612 | 79 | 306 | 0.0 | 2.0 | 0.00 | 0.18 | 0.00 | 61 | 1018.7 |
| 20260902180056 | 78 | 121 | 0.0 | 3.0 | 0.00 | 0.18 | 0.00 | 61 | 1018.9 |
| 20260902174557 | 79 | 228 | 0.0 | 1.0 | 0.00 | 0.27 | 0.00 | 59 | 1019.0 |
| 20260902173101 | 78 | 179 | 0.0 | 2.0 | 0.00 | 0.27 | 0.00 | 62 | 1018.9 |
| 20260902171549 | 77 | 350 | 0.0 | 2.0 | 0.00 | 0.27 | 0.00 | 66 | 1019.0 |
| 20260902170051 | 77 | 179 | 0.0 | 3.0 | 0.00 | 0.27 | 0.00 | 66 | 1019.2 |
| 20260902164544 | 76 | 219 | 0.0 | 1.0 | 0.00 | 0.27 | 0.00 | 68 | 1019.3 |
| 20260902163044 | 76 | 11 | 0.0 | 1.0 | 0.00 | 0.27 | 0.00 | 68 | 1019.4 |
| 20260902161539 | 75 | 321 | 0.0 | 1.0 | 0.00 | 0.27 | 0.00 | 70 | 1019.4 |
| 20260902160037 | 74 | 4 | 0.0 | 2.0 | 0.00 | 0.27 | 0.00 | 69 | 1019.7 |
| 20260902154538 | 73 | 31 | 0.0 | 1.0 | 0.00 | 0.48 | 0.00 | 71 | 1020.0 |
| 20260902153034 | 73 | 244 | 0.0 | 1.0 | 0.00 | 0.48 | 0.00 | 70 | 1019.9 |
| 20260902151536 | 73 | 360 | 0.0 | 2.0 | 0.00 | 0.48 | 0.00 | 72 | 1020.1 |
| 20260902150029 | 72 | 285 | 0.0 | 1.0 | 0.00 | 0.48 | 0.00 | 72 | 1019.9 |
| 20260902144526 | 71 | 323 | 0.0 | 5.0 | 0.00 | 0.79 | 0.00 | 76 | 1020.1 |
| 20260902143023 | 70 | 351 | 0.0 | 4.0 | 0.00 | 0.79 | 0.00 | 81 | 1019.8 |
| 20260902141521 | 70 | 334 | 2.0 | 4.0 | 0.00 | 0.79 | 0.00 | 81 | 1019.7 |
| 20260902140020 | 69 | 349 | 0.0 | 1.0 | 0.00 | 0.79 | 0.00 | 83 | 1019.6 |
| 20260902134518 | 69 | 338 | 0.0 | 1.0 | 0.00 | 0.96 | 0.00 | 85 | 1019.2 |
| 20260902133015 | 68 | 344 | 0.0 | 3.0 | 0.00 | 0.96 | 0.00 | 85 | 1019.1 |
| 20260902131513 | 68 | 8 | 2.0 | 4.0 | 0.00 | 0.96 | 0.00 | 86 | 1019.1 |
| 20260902130012 | 67 | 315 | 0.0 | 2.0 | 0.00 | 1.04 | 0.00 | 87 | 1019.3 |
| 20260902124510 | 67 | 342 | 0.0 | 4.0 | 0.00 | 1.04 | 0.00 | 88 | 1019.4 |
| 20260902123008 | 66 | 340 | 0.0 | 3.0 | 0.00 | 1.04 | 0.00 | 90 | 1019.5 |
| 20260902121506 | 66 | 12 | 0.0 | 0.0 | 0.00 | 1.04 | 0.00 | 91 | 1019.4 |
| 20260902120003 | 65 | 4 | 0.0 | 3.0 | 0.00 | 1.04 | 0.00 | 93 | 1019.6 |
| 20260902114502 | 65 | 351 | 0.0 | 3.0 | 0.00 | 1.04 | 0.00 | 94 | 1019.8 |
| 20260902113057 | 64 | 356 | 0.0 | 0.0 | 0.00 | 1.04 | 0.00 | 94 | 1019.7 |
| 20260902111558 | 64 | 347 | 0.0 | 0.0 | 0.00 | 1.04 | 0.00 | 95 | 1019.5 |
| 20260902110059 | 63 | 351 | 0.0 | 0.0 | 0.00 | 1.04 | 0.00 | 95 | 1019.5 |
| 20260902104602 | 63 | 351 | 0.0 | 0.0 | 0.00 | 1.04 | 0.00 | 95 | 1019.2 |
| 20260902103105 | 62 | 351 | 0.0 | 0.0 | 0.00 | 1.04 | 0.00 | 95 | 1019.1 |
| 20260902101554 | 62 | 351 | 0.0 | 0.0 | 0.00 | 1.04 | 0.00 | 95 | 1018.9 |
| 20260902100046 | 62 | 351 | 0.0 | 0.0 | 0.00 | 1.04 | 0.00 | 95 | 1018.8 |
| 20260902094544 | 62 | 353 | 0.0 | 0.0 | 0.00 | 1.04 | 0.00 | 95 | 1018.7 |
| 20260902093042 | 62 | 346 | 0.0 | 0.0 | 0.00 | 1.04 | 0.00 | 95 | 1018.5 |
| 20260902091542 | 62 | 346 | 0.0 | 0.0 | 0.00 | 1.04 | 0.00 | 95 | 1018.4 |
| 20260902090042 | 62 | 346 | 0.0 | 0.0 | 0.00 | 1.04 | 0.00 | 95 | 1018.4 |
| 20260902084542 | 61 | 346 | 0.0 | 0.0 | 0.00 | 1.04 | 0.00 | 94 | 1018.4 |
| 20260902083044 | 61 | 343 | 0.0 | 0.0 | 0.00 | 1.04 | 0.00 | 94 | 1018.3 |
| 20260902081539 | 61 | 344 | 0.0 | 0.0 | 0.00 | 1.04 | 0.00 | 94 | 1018.2 |
| 20260902080040 | 61 | 344 | 0.0 | 0.0 | 0.00 | 1.04 | 0.00 | 93 | 1018.2 |
| 20260902074538 | 62 | 351 | 0.0 | 0.0 | 0.00 | 1.04 | 0.00 | 93 | 1018.3 |
| 20260902073036 | 62 | 349 | 0.0 | 0.0 | 0.00 | 1.04 | 0.00 | 92 | 1018.4 |
| 20260902071534 | 62 | 348 | 0.0 | 0.0 | 0.00 | 1.04 | 0.00 | 93 | 1018.3 |
| 20260902070033 | 62 | 343 | 0.0 | 0.0 | 0.00 | 1.04 | 0.00 | 94 | 1018.2 |
| 20260902064533 | 62 | 358 | 0.0 | 0.0 | 0.00 | 1.04 | 0.00 | 94 | 1018.2 |
| 20260902063050 | 62 | 358 | 0.0 | 0.0 | 0.00 | 1.04 | 0.00 | 94 | 1017.9 |
| 20260902061550 | 62 | 358 | 0.0 | 0.0 | 0.00 | 1.04 | 0.00 | 95 | 1018.1 |
| 20260902060038 | 62 | 358 | 0.0 | 0.0 | 0.00 | 1.04 | 0.00 | 95 | 1017.8 |
| 20260902054531 | 62 | 358 | 0.0 | 0.0 | 0.00 | 1.04 | 0.00 | 96 | 1017.8 |
| 20260902053034 | 62 | 358 | 0.0 | 0.0 | 0.00 | 1.04 | 0.00 | 96 | 1017.7 |
| 20260902051528 | 61 | 358 | 0.0 | 2.0 | 0.00 | 1.04 | 0.00 | 96 | 1017.7 |
| 20260902050026 | 61 | 353 | 0.0 | 0.0 | 0.00 | 1.04 | 0.00 | 97 | 1017.5 |
| 20260902044551 | 61 | 340 | 0.0 | 0.0 | 0.00 | 1.04 | 0.00 | 97 | 1017.5 |
| 20260902043022 | 61 | 343 | 0.0 | 0.0 | 0.00 | 1.04 | 0.00 | 96 | 1017.6 |
| 20260902041522 | 61 | 343 | 0.0 | 0.0 | 0.00 | 1.04 | 0.00 | 96 | 1017.7 |
| 20260902040018 | 62 | 343 | 0.0 | 0.0 | 0.00 | 1.04 | 1.04 | 96 | 1017.5 |
| 20260902034516 | 62 | 343 | 0.0 | 0.0 | 0.00 | 1.04 | 1.04 | 96 | 1017.2 |
| 20260902033015 | 62 | 343 | 0.0 | 0.0 | 0.00 | 1.04 | 1.04 | 96 | 1017.1 |
| 20260902031534 | 62 | 340 | 0.0 | 0.0 | 0.00 | 1.04 | 1.04 | 96 | 1017.1 |
| 20260902030011 | 62 | 340 | 0.0 | 0.0 | 0.00 | 1.04 | 1.04 | 96 | 1017.1 |
| 20260902024511 | 62 | 340 | 0.0 | 0.0 | 0.00 | 1.04 | 1.04 | 96 | 1016.9 |
| 20260902023020 | 62 | 339 | 0.0 | 0.0 | 0.00 | 1.04 | 1.04 | 96 | 1016.9 |
| 20260902021508 | 62 | 327 | 0.0 | 0.0 | 0.00 | 1.04 | 1.04 | 97 | 1016.8 |
| 20260902020009 | 62 | 326 | 0.0 | 0.0 | 0.00 | 1.04 | 1.04 | 97 | 1016.7 |
| 20260902014513 | 62 | 326 | 0.0 | 0.0 | 0.00 | 1.04 | 1.04 | 96 | 1016.8 |
| 20260902013007 | 62 | 326 | 0.0 | 0.0 | 0.00 | 1.04 | 1.04 | 96 | 1016.6 |
| 20260902012507 | 62 | 326 | 0.0 | 0.0 | 0.00 | 1.04 | 1.04 | 96 | 1016.5 |
| 20260902012006 | 62 | 326 | 0.0 | 0.0 | 0.00 | 1.04 | 1.04 | 96 | 1016.7 |
| 20260902011506 | 62 | 326 | 0.0 | 0.0 | 0.00 | 1.04 | 1.04 | 96 | 1016.7 |
| 20260902011006 | 62 | 326 | 0.0 | 0.0 | 0.00 | 1.04 | 1.04 | 96 | 1016.7 |
| 20260902010505 | 62 | 327 | 0.0 | 0.0 | 0.00 | 1.04 | 1.04 | 96 | 1016.7 |
| 20260902010005 | 62 | 327 | 0.0 | 0.0 | 0.00 | 1.04 | 1.04 | 96 | 1016.7 |
| 20260902005505 | 62 | 326 | 0.0 | 0.0 | 0.00 | 1.04 | 1.04 | 96 | 1016.6 |
| 20260902005006 | 62 | 326 | 0.0 | 0.0 | 0.00 | 1.04 | 1.04 | 96 | 1016.5 |
| 20260902004505 | 62 | 326 | 0.0 | 0.0 | 0.00 | 1.04 | 1.04 | 96 | 1016.5 |
| 20260902004005 | 62 | 326 | 0.0 | 0.0 | 0.00 | 1.04 | 1.04 | 96 | 1016.6 |
| 20260902003508 | 62 | 326 | 0.0 | 0.0 | 0.00 | 1.04 | 1.04 | 96 | 1016.6 |
| 20260902003005 | 62 | 326 | 0.0 | 0.0 | 0.00 | 1.04 | 1.04 | 96 | 1016.8 |
| 20260902002506 | 62 | 326 | 0.0 | 0.0 | 0.00 | 1.04 | 1.04 | 97 | 1016.5 |
| 20260902002003 | 62 | 326 | 0.0 | 0.0 | 0.00 | 1.04 | 1.04 | 97 | 1016.5 |
| 20260902001503 | 62 | 326 | 0.0 | 0.0 | 0.00 | 1.04 | 1.04 | 96 | 1016.5 |
| 20260902001003 | 62 | 326 | 0.0 | 0.0 | 0.00 | 1.04 | 1.04 | 97 | 1016.5 |
| 20260902000503 | 62 | 326 | 0.0 | 0.0 | 0.00 | 1.04 | 1.04 | 97 | 1016.5 |
| 20260902000007 | 62 | 326 | 0.0 | 0.0 | 0.00 | 1.04 | 1.04 | 96 | 1016.5 |
| 20260901235603 | 62 | 326 | 0.0 | 0.0 | 0.00 | 1.04 | 1.04 | 97 | 1016.4 |
| 20260901235002 | 62 | 326 | 0.0 | 0.0 | 0.00 | 1.04 | 1.04 | 96 | 1016.4 |
| 20260901234502 | 62 | 326 | 0.0 | 0.0 | 0.00 | 1.04 | 1.04 | 96 | 1016.3 |
| 20260901234002 | 62 | 326 | 0.0 | 0.0 | 0.00 | 1.04 | 1.04 | 97 | 1016.3 |
| 20260901233504 | 62 | 326 | 0.0 | 0.0 | 0.00 | 1.04 | 1.04 | 97 | 1016.2 |
| 20260901233005 | 62 | 327 | 0.0 | 0.0 | 0.00 | 1.04 | 1.04 | 97 | 1016.2 |
| 20260901232502 | 62 | 327 | 0.0 | 0.0 | 0.00 | 1.04 | 1.04 | 97 | 1016.1 |
| 20260901232001 | 62 | 327 | 0.0 | 0.0 | 0.00 | 1.04 | 1.04 | 97 | 1016.1 |
| 20260901231501 | 62 | 327 | 0.0 | 0.0 | 0.00 | 1.04 | 1.04 | 97 | 1016.3 |
| 20260901231003 | 62 | 327 | 0.0 | 0.0 | 0.00 | 1.04 | 1.04 | 97 | 1016.3 |
| 20260901230501 | 61 | 327 | 0.0 | 0.0 | 0.01 | 1.04 | 1.04 | 96 | 1016.4 |
| 20260901230003 | 61 | 327 | 0.0 | 0.0 | 0.01 | 1.04 | 1.04 | 96 | 1016.3 |
| 20260901225500 | 61 | 327 | 0.0 | 0.0 | 0.01 | 1.04 | 1.04 | 97 | 1016.4 |
| 20260901225100 | 61 | 327 | 0.0 | 0.0 | 0.01 | 1.04 | 1.04 | 96 | 1016.3 |
| 20260901224600 | 61 | 327 | 0.0 | 0.0 | 0.01 | 1.04 | 1.04 | 96 | 1016.3 |
| 20260901224101 | 61 | 328 | 0.0 | 0.0 | 0.01 | 1.04 | 1.04 | 96 | 1016.3 |
| 20260901223604 | 61 | 328 | 0.0 | 0.0 | 0.01 | 1.04 | 1.04 | 96 | 1016.2 |
| 20260901223100 | 61 | 290 | 0.0 | 0.0 | 0.01 | 1.04 | 1.04 | 96 | 1016.2 |
| 20260901222602 | 61 | 288 | 0.0 | 0.0 | 0.02 | 1.04 | 1.04 | 96 | 1016.2 |
| 20260901222059 | 61 | 288 | 0.0 | 0.0 | 0.02 | 1.04 | 1.04 | 96 | 1016.2 |
| 20260901221611 | 61 | 288 | 0.0 | 0.0 | 0.02 | 1.04 | 1.04 | 96 | 1016.2 |
| 20260901221059 | 61 | 300 | 0.0 | 0.0 | 0.02 | 1.04 | 1.04 | 96 | 1016.2 |
| 20260901220601 | 61 | 263 | 0.0 | 0.0 | 0.01 | 1.03 | 1.03 | 96 | 1016.4 |
| 20260901220059 | 61 | 263 | 0.0 | 0.0 | 0.02 | 1.03 | 1.03 | 96 | 1016.4 |
| 20260901215559 | 61 | 263 | 0.0 | 0.0 | 0.02 | 1.03 | 1.03 | 96 | 1016.3 |
| 20260901215058 | 61 | 221 | 0.0 | 0.0 | 0.02 | 1.03 | 1.03 | 96 | 1016.3 |
| 20260901214559 | 61 | 221 | 0.0 | 0.0 | 0.03 | 1.03 | 1.03 | 96 | 1016.4 |
| 20260901214058 | 61 | 221 | 0.0 | 0.0 | 0.03 | 1.03 | 1.03 | 96 | 1016.5 |
| 20260901213558 | 60 | 211 | 0.0 | 0.0 | 0.03 | 1.03 | 1.03 | 96 | 1016.4 |
| 20260901213058 | 61 | 241 | 0.0 | 0.0 | 0.03 | 1.03 | 1.03 | 95 | 1016.4 |
| 20260901212558 | 61 | 202 | 0.0 | 0.0 | 0.02 | 1.02 | 1.02 | 95 | 1016.3 |
| 20260901212058 | 61 | 322 | 0.0 | 0.0 | 0.02 | 1.02 | 1.02 | 95 | 1016.3 |
| 20260901211557 | 61 | 238 | 0.0 | 0.0 | 0.02 | 1.02 | 1.02 | 95 | 1016.3 |
| 20260901211056 | 61 | 188 | 0.0 | 0.0 | 0.02 | 1.02 | 1.02 | 95 | 1016.2 |
| 20260901210555 | 61 | 259 | 0.0 | 0.0 | 0.02 | 1.02 | 1.02 | 95 | 1016.2 |
| 20260901210053 | 62 | 233 | 0.0 | 0.0 | 0.01 | 1.01 | 1.01 | 95 | 1016.1 |
| 20260901205554 | 62 | 354 | 0.0 | 0.0 | 0.01 | 1.01 | 1.01 | 95 | 1016.1 |
| 20260901205052 | 62 | 38 | 0.0 | 0.0 | 0.02 | 1.01 | 1.01 | 95 | 1016.1 |
| 20260901204551 | 62 | 314 | 0.0 | 2.0 | 0.01 | 1.00 | 1.00 | 96 | 1016.0 |
| 20260901204051 | 63 | 324 | 0.0 | 2.0 | 0.02 | 1.00 | 1.00 | 96 | 1015.9 |
| 20260901203553 | 63 | 351 | 0.0 | 2.0 | 0.03 | 1.00 | 1.00 | 96 | 1015.8 |
| 20260901203056 | 63 | 268 | 0.0 | 0.0 | 0.04 | 1.00 | 1.00 | 96 | 1015.8 |
| 20260901202550 | 63 | 346 | 0.0 | 0.0 | 0.04 | 1.00 | 1.00 | 96 | 1015.9 |
| 20260901202056 | 63 | 346 | 0.0 | 0.0 | 0.05 | 1.00 | 1.00 | 96 | 1015.8 |
| 20260901201551 | 63 | 330 | 0.0 | 0.0 | 0.05 | 1.00 | 1.00 | 96 | 1015.7 |
| 20260901201050 | 63 | 330 | 0.0 | 0.0 | 0.05 | 1.00 | 1.00 | 96 | 1015.8 |
| 20260901200550 | 63 | 330 | 0.0 | 0.0 | 0.06 | 1.00 | 1.00 | 95 | 1015.8 |
| 20260901200050 | 63 | 330 | 0.0 | 0.0 | 0.08 | 1.00 | 1.00 | 96 | 1015.7 |
| 20260901195650 | 63 | 330 | 0.0 | 0.0 | 0.08 | 1.00 | 1.00 | 95 | 1015.8 |
| 20260901195049 | 63 | 340 | 0.0 | 0.0 | 0.08 | 0.99 | 0.99 | 95 | 1015.8 |
| 20260901194549 | 63 | 340 | 0.0 | 0.0 | 0.08 | 0.99 | 0.99 | 95 | 1015.8 |
| 20260901194049 | 63 | 335 | 0.0 | 0.0 | 0.07 | 0.98 | 0.98 | 95 | 1015.7 |
| 20260901193550 | 63 | 337 | 0.0 | 0.0 | 0.06 | 0.97 | 0.97 | 95 | 1015.7 |
| 20260901193048 | 63 | 308 | 0.0 | 0.0 | 0.05 | 0.96 | 0.96 | 95 | 1015.7 |
| 20260901192551 | 63 | 311 | 0.0 | 0.0 | 0.05 | 0.96 | 0.96 | 95 | 1015.6 |
| 20260901192050 | 63 | 311 | 0.0 | 0.0 | 0.04 | 0.95 | 0.95 | 95 | 1015.5 |
| 20260901191548 | 64 | 311 | 0.0 | 0.0 | 0.04 | 0.95 | 0.95 | 95 | 1015.5 |
| 20260901191049 | 64 | 344 | 0.0 | 0.0 | 0.04 | 0.95 | 0.95 | 95 | 1015.5 |
| 20260901190548 | 64 | 344 | 0.0 | 0.0 | 0.04 | 0.93 | 0.93 | 95 | 1015.4 |
| 20260901190048 | 63 | 15 | 0.0 | 0.0 | 0.06 | 0.92 | 0.92 | 95 | 1015.4 |
| 20260901185548 | 63 | 15 | 0.0 | 0.0 | 0.07 | 0.91 | 0.91 | 95 | 1015.4 |